INTELSAT 37E (IS-37E) (42950 NORAD) Tracking and Keplerian Element Data

This shows tracking and keplerian element data for the satellite.

Feedback or suggestion? Click here.




ElementValue
Catalog42950
NameINTELSAT 37E (IS-37E)
Epoch Orbit1338
Epoch Day130.87254017
Epoch Year2021
RAAN285.3173
Inclination0.0127
Eccentricity0.0002313
Argument of Perigee128.9346
Mean Anonmoly110.7315
Mean Motion1.00271675
Decay Rate-1.35E-06
L11 42950U 17059A 21130.87254017 -.00000135 00000-0 00000-0 0 9993
L22 42950 0.0127 285.3173 0002313 128.9346 110.7315 1.00271675 13385

Live tracking and technical data element details for INTELSAT 37E (IS-37E) (NORAD 42950). INTELSAT 37E (IS-37E) can be tracked NOW for your location showing map with azimuth and elevation plus other details from your city location.

Track the satellite on the map from your city or location and see movement details for azimuth, elevation, latitude, longitude, range, height, and movement on the map or in text.







IsCatalogInMostPopularTable: catalog: 42950, numindb: 950
Update: records affected: 1



GetName: 42950 INTELSAT 37E (IS-37E)

Hit Count: updated at: Tue, 11 May 2021 19:39:13 GMT